Showing default

XINGYUN-2 02, 45603

Orbit data source: Space-Track

XINGYUN-2 02, 45603 is a payload satellite owned by Xingyun (CN) in SSO that was launched on Tue, 12 May 2020 UTC via a KUAIZHOU-1A launch vehicle from the Jiuquan Satellite Launch Center, China (JSC). Payload-class satellites include a variety of spacecraft equipped with specific instruments for various scientific and technological missions. These include communications satellites like Starlink; space stations such as the ISS; scientific satellites like the Hubble; Earth observation satellites from companies like Planet Labs, Umbra, and HawkEye 360; GPS; miniature CubeSats for education and research; and military/defense satellites.

Loading next visibility...
Identifier
45603, 2020-028B
Orbit
SSO
Country
Flag of CNCN / PRC
Related business
Manufacturer
Sanjiang
Mission
Operational Commercial Communications
Bus & Motor
XINGYUN, Unknown motor
Mass
93 kg wet, ~85 kg dry
Launch date (UTC)
2020-05-12 (6 years ago)
Launch vehicle
KUAIZHOU-1A
Launch site
Jiuquan Satellite Launch Center, China (JSC)
Object type
Payload
Rocket body
Debris
Shape & HBR
Box, Unknown HBR
Radar Cross Section
0.569 m², Medium (>0.1 m² and < 1m²)

Expand to show TLE details & history
Last TLE update: 7 hours ago

TLE from 7 hours ago
0 XINGYUN-2 02
1 45603U 20028B   25346.97694319  .00004384  00000-0  26952-3 0  9994
2 45603  97.5089 351.3639 0010895 184.2175 175.8965 15.10519103306713
Epoch: 2025-12-12T23:26Z
TLE epoch observation values (Epoch: 2025-12-12T23:26:47.891Z)
Latitude
-0°
Longitude
-82.24648°
Altitude
545.204 km
Speed
7.585 km/s
True Right ascension
23h 25m 27s
True Declination
0° 00' 00"
Sunlit
Object was in daylight at epoch
Visualization orbit readout
Latitude
Unknown
Longitude
Unknown
Altitude
Unknown
Speed
Unknown
Apparent Right ascension
Unknown
Apparent Declination
Unknown
Sunlit
N/A
Visualization observer readout
Local Sidereal Time
05:23:00
Azimuth
Unknown
Elevation
Unknown
Doppler factor
Unknown
Orbital elements
Apogee altitude
539.127 km
Perigee altitude
524.071 km
Semi-major axis
6,909.736 km
Eccentricity
0.00109
Inclination
97.5089°
RAAN
351.3639°
Arg. of periapsis
184.2175°
True anomaly
175.90542°
Mean anomaly
175.8965°
Eccentric anomaly
175.90096°
Mean motion
3.77877 °/min
Orbital period
95.27 mins
BSTAR
0.00026952
Loading maneuver chart data...
Computing Atmospheric mass density...
Loading historical data...
Loading historical data...
Loading historical data...
Loading historical data...
Loading historical data...
Loading historical data...
Loading historical data...
Other satellites on launch #28 in the year 2020 (2020-05-12 UTC)

Documentation

Showing up to 5 results
|